KC5TIL Weather Reports


Display with metric or nautical units.
time (UTC)temp
F
wind
direction
speed
MPH
gust
MPH
rain 1hr
in
rain 24hr
in
rain mn
in
humidity
%
barometer
mb
20260504050334 66 112 0.0 1.0 0.00 0.00 0.00 62 1017.1
20260504045832 66 155 1.0 2.0 0.00 0.00 0.00 63 1017.2
20260504045326 66 125 0.0 2.0 0.00 0.00 0.00 62 1017.0
20260504044824 66 116 0.0 3.0 0.00 0.00 0.00 62 1017.1
20260504044321 66 140 1.0 2.0 0.00 0.00 0.00 61 1017.2
20260504043818 67 140 0.0 1.0 0.00 0.00 0.00 61 1017.3
20260504043315 67 130 1.0 2.0 0.00 0.00 0.00 60 1017.1
20260504042813 66 148 1.0 2.0 0.00 0.00 0.00 60 1017.2
20260504042309 66 137 1.0 2.0 0.00 0.00 0.00 60 1017.3
20260504041805 67 120 1.0 1.0 0.00 0.00 0.00 60 1017.4
20260504041301 67 113 0.0 1.0 0.00 0.00 0.00 60 1017.4
20260504040758 67 124 0.0 1.0 0.00 0.00 0.00 59 1017.4
20260504040255 67 120 1.0 3.0 0.00 0.00 0.00 59 1017.5
20260504035751 67 137 0.0 1.0 0.00 0.00 0.00 59 1017.2
20260504035248 67 128 0.0 0.0 0.00 0.00 0.00 60 1017.1
20260504034745 67 121 0.0 2.0 0.00 0.00 0.00 58 1017.3
20260504034243 68 142 1.0 1.0 0.00 0.00 0.00 59 1017.1
20260504033740 68 105 0.0 1.0 0.00 0.00 0.00 59 1017.1
20260504033238 68 179 2.0 3.0 0.00 0.00 0.00 58 1017.1
20260504032734 68 99 1.0 1.0 0.00 0.00 0.00 59 1017.2
20260504032231 68 100 1.0 2.0 0.00 0.00 0.00 58 1017.2
20260504031728 68 125 1.0 5.0 0.00 0.00 0.00 58 1017.1
20260504031226 68 218 1.0 1.0 0.00 0.00 0.00 57 1017.3
20260504030721 68 82 0.0 5.0 0.00 0.00 0.00 58 1017.1
20260504030219 68 127 0.0 1.0 0.00 0.00 0.00 58 1017.1
20260504025715 68 125 1.0 1.0 0.00 0.00 0.00 57 1017.0
20260504025212 68 118 0.0 1.0 0.00 0.00 0.00 56 1016.9
20260504024709 69 156 1.0 2.0 0.00 0.00 0.00 56 1016.9
20260504024205 69 148 0.0 2.0 0.00 0.00 0.00 55 1016.8
20260504023702 69 123 2.0 3.0 0.00 0.00 0.00 54 1016.7
20260504023158 70 132 0.0 1.0 0.00 0.00 0.00 54 1016.8
20260504022655 70 145 1.0 2.0 0.00 0.00 0.00 53 1016.7
20260504022150 70 130 1.0 2.0 0.00 0.00 0.00 52 1016.9
20260504021649 70 124 1.0 3.0 0.00 0.00 0.00 52 1016.9
20260504021145 71 139 0.0 1.0 0.00 0.00 0.00 51 1016.7
20260504020642 71 119 0.0 1.0 0.00 0.00 0.00 51 1016.8
20260504020138 71 149 1.0 2.0 0.00 0.00 0.00 50 1016.8
20260504015635 71 142 0.0 2.0 0.00 0.00 0.00 49 1016.7
20260504015131 72 126 0.0 3.0 0.00 0.00 0.00 48 1016.7
20260504014627 72 158 1.0 2.0 0.00 0.00 0.00 48 1016.7
20260504014124 72 121 0.0 1.0 0.00 0.00 0.00 48 1016.7
20260504013622 73 210 1.0 2.0 0.00 0.00 0.00 47 1016.6
20260504013119 73 123 1.0 2.0 0.00 0.00 0.00 46 1016.5
20260504012616 73 135 0.0 2.0 0.00 0.00 0.00 46 1016.3
20260504012114 73 175 2.0 3.0 0.00 0.00 0.00 45 1016.5
20260504011610 74 107 0.0 6.0 0.00 0.00 0.00 45 1016.3
20260504011107 74 135 1.0 2.0 0.00 0.00 0.00 45 1016.2
20260504010602 74 129 0.0 2.0 0.00 0.00 0.00 44 1016.3
20260504010059 74 114 1.0 5.0 0.00 0.00 0.00 45 1016.3
20260504005555 75 195 1.0 2.0 0.00 0.00 0.00 43 1016.2
20260504005053 75 150 1.0 6.0 0.00 0.00 0.00 43 1016.1
20260504004551 75 143 1.0 5.0 0.00 0.00 0.00 42 1016.1
20260504004047 76 118 0.0 3.0 0.00 0.00 0.00 42 1015.9
20260504003543 76 135 1.0 5.0 0.00 0.00 0.00 42 1015.7
20260504003040 77 63 2.0 3.0 0.00 0.00 0.00 41 1015.8
20260504002537 77 153 2.0 3.0 0.00 0.00 0.00 41 1015.8
20260504002035 77 125 1.0 5.0 0.00 0.00 0.00 40 1015.9
20260504001533 78 162 2.0 3.0 0.00 0.00 0.00 39 1015.9
20260504001028 78 154 2.0 5.0 0.00 0.00 0.00 39 1015.9
20260504000526 78 205 3.0 3.0 0.00 0.00 0.00 38 1016.0
20260504000023 79 97 0.0 3.0 0.00 0.00 0.00 38 1015.9
20260503235521 78 153 1.0 5.0 0.00 0.00 0.00 37 1015.9
20260503235018 79 152 4.0 6.0 0.00 0.00 0.00 35 1016.1
20260503234515 79 220 1.0 3.0 0.00 0.00 0.00 36 1015.9
20260503234014 79 122 2.0 5.0 0.00 0.00 0.00 37 1015.9
20260503233510 80 133 1.0 5.0 0.00 0.00 0.00 39 1015.9
20260503233006 80 122 1.0 2.0 0.00 0.00 0.00 38 1016.1
20260503232503 80 132 1.0 5.0 0.00 0.00 0.00 35 1016.0
20260503232001 81 122 2.0 3.0 0.00 0.00 0.00 35 1016.2
20260503231458 81 130 3.0 3.0 0.00 0.00 0.00 35 1016.2
20260503230954 81 123 2.0 5.0 0.00 0.00 0.00 34 1016.2
20260503230451 81 103 0.0 2.0 0.00 0.00 0.00 35 1016.4
20260503225949 81 83 2.0 3.0 0.00 0.00 0.00 34 1016.3
20260503225445 81 169 1.0 5.0 0.00 0.00 0.00 37 1016.3
20260503224941 81 102 1.0 9.0 0.00 0.00 0.00 35 1016.3
20260503224438 81 98 1.0 6.0 0.00 0.00 0.00 36 1016.2
20260503223936 82 120 1.0 2.0 0.00 0.00 0.00 35 1016.3
20260503223433 82 104 0.0 3.0 0.00 0.00 0.00 35 1016.3
20260503222928 82 132 0.0 2.0 0.00 0.00 0.00 34 1016.2
20260503222427 81 141 0.0 2.0 0.00 0.00 0.00 36 1016.4
20260503221925 81 206 2.0 3.0 0.00 0.00 0.00 35 1016.5
20260503221423 82 155 2.0 5.0 0.00 0.00 0.00 34 1016.6
20260503220920 82 105 0.0 6.0 0.00 0.00 0.00 33 1016.8
20260503220416 82 168 1.0 2.0 0.00 0.00 0.00 36 1016.7
20260503215914 82 137 1.0 2.0 0.00 0.00 0.00 35 1016.7
20260503215410 83 120 3.0 5.0 0.00 0.00 0.00 34 1016.8
20260503214908 83 153 3.0 5.0 0.00 0.00 0.00 32 1016.9
20260503214405 83 138 2.0 7.0 0.00 0.00 0.00 33 1017.1
20260503213903 82 125 0.0 5.0 0.00 0.00 0.00 36 1017.0
20260503213400 83 110 2.0 3.0 0.00 0.00 0.00 34 1017.1
20260503212856 83 169 1.0 6.0 0.00 0.00 0.00 35 1017.2
20260503212355 84 150 3.0 6.0 0.00 0.00 0.00 32 1017.3
20260503211851 83 252 3.0 3.0 0.00 0.00 0.00 31 1017.4
20260503211348 83 146 1.0 2.0 0.00 0.00 0.00 33 1017.5
20260503210843 83 139 1.0 7.0 0.00 0.00 0.00 33 1017.5
20260503210341 83 121 3.0 6.0 0.00 0.00 0.00 33 1017.8
20260503205836 82 182 3.0 3.0 0.00 0.00 0.00 34 1017.9
20260503205332 83 78 2.0 5.0 0.00 0.00 0.00 35 1018.1
20260503204829 84 262 2.0 6.0 0.00 0.00 0.00 35 1018.1
20260503204327 83 142 1.0 2.0 0.00 0.00 0.00 34 1018.3
20260503203824 82 154 1.0 3.0 0.00 0.00 0.00 37 1018.3
20260503203321 83 131 2.0 3.0 0.00 0.00 0.00 33 1018.6
20260503202818 84 218 1.0 3.0 0.00 0.00 0.00 32 1018.6
20260503202316 83 129 0.0 3.0 0.00 0.00 0.00 33 1018.6
20260503201814 83 134 3.0 5.0 0.00 0.00 0.00 34 1018.6
20260503201310 83 134 0.0 2.0 0.00 0.00 0.00 32 1018.7
20260503200808 83 182 3.0 8.0 0.00 0.00 0.00 33 1018.9
20260503200303 83 135 0.0 3.0 0.00 0.00 0.00 31 1018.9
20260503195801 83 162 1.0 6.0 0.00 0.00 0.00 33 1018.9
20260503195258 84 152 2.0 5.0 0.00 0.00 0.00 32 1019.1
20260503194755 83 134 1.0 2.0 0.00 0.00 0.00 33 1019.1
20260503194251 83 119 0.0 3.0 0.00 0.00 0.00 33 1019.2
20260503193747 84 95 1.0 3.0 0.00 0.00 0.00 33 1019.3
20260503193243 84 163 1.0 2.0 0.00 0.00 0.00 33 1019.4
20260503192739 84 163 1.0 2.0 0.00 0.00 0.00 32 1019.5
20260503192234 84 184 1.0 2.0 0.00 0.00 0.00 32 1019.6
20260503191732 84 154 1.0 7.0 0.00 0.00 0.00 34 1019.6
20260503191229 83 134 1.0 5.0 0.00 0.00 0.00 34 1019.6
20260503190725 83 81 2.0 3.0 0.00 0.00 0.00 34 1019.8
20260503190222 83 202 2.0 3.0 0.00 0.00 0.00 33 1019.8
20260503185719 83 159 1.0 3.0 0.00 0.00 0.00 34 1020.0
20260503185215 83 128 1.0 3.0 0.00 0.00 0.00 35 1020.1
20260503184709 83 279 2.0 2.0 0.00 0.00 0.00 35 1019.9
20260503184206 83 35 1.0 3.0 0.00 0.00 0.00 33 1020.2
20260503183703 83 175 2.0 3.0 0.00 0.00 0.00 32 1020.3
20260503183200 83 162 1.0 7.0 0.00 0.00 0.00 35 1020.2
20260503182658 83 133 2.0 3.0 0.00 0.00 0.00 35 1020.4
20260503182156 82 116 1.0 3.0 0.00 0.00 0.00 36 1020.5
20260503181652 82 199 2.0 3.0 0.00 0.00 0.00 36 1020.7
20260503181149 82 208 2.0 3.0 0.00 0.00 0.00 36 1020.5
20260503180646 82 222 3.0 7.0 0.00 0.00 0.00 37 1021.0
20260503180144 81 147 1.0 3.0 0.00 0.00 0.00 38 1020.9
20260503175641 81 215 1.0 3.0 0.00 0.00 0.00 41 1020.9
20260503175138 81 36 4.0 6.0 0.00 0.00 0.00 39 1021.1
20260503174634 80 110 1.0 3.0 0.00 0.00 0.00 40 1021.2
20260503174132 80 180 1.0 3.0 0.00 0.00 0.00 39 1021.6
20260503173627 81 194 2.0 5.0 0.00 0.00 0.00 38 1021.5
20260503173124 81 119 1.0 3.0 0.00 0.00 0.00 40 1021.4
20260503172620 80 168 1.0 3.0 0.00 0.00 0.00 40 1021.7
20260503172118 81 27 1.0 2.0 0.00 0.00 0.00 43 1021.6
20260503171614 81 150 1.0 1.0 0.00 0.00 0.00 43 1021.9
20260503171112 80 252 1.0 3.0 0.00 0.00 0.00 44 1022.1
20260503170609 80 172 1.0 2.0 0.00 0.00 0.00 44 1022.1
20260503170105 79 142 1.0 3.0 0.00 0.00 0.00 44 1022.2
20260503151000 74 142 2.0 3.0 0.00 0.00 0.00 48 1022.9
20260503150457 73 198 2.0 3.0 0.00 0.00 0.00 49 1022.9
20260503131350 64 131 0.0 2.0 0.00 0.00 0.00 66 1023.3
20260503130847 63 161 1.0 2.0 0.00 0.00 0.00 67 1023.1
20260503130345 63 128 1.0 2.0 0.00 0.00 0.00 67 1023.1
20260503110739 55 119 0.0 0.0 0.00 0.00 0.00 81 1022.1
20260503110236 55 119 0.0 1.0 0.00 0.00 0.00 81 1022.1
20260503100202 55 111 0.0 0.0 0.00 0.00 0.00 83 1021.9
20260503090121 56 117 0.0 0.0 0.00 0.00 0.00 81 1021.8
20260503081551 57 125 0.0 0.0 0.00 0.00 0.00 78 1021.5
20260503081048 57 133 0.0 0.0 0.00 0.00 0.00 79 1021.5
20260503080544 57 128 0.0 0.0 0.00 0.00 0.00 78 1021.6